This is the latest recevied weather packets stored in our database for station/object KJ5EHN. If no packets are shown the sender has not sent any weather packets the latest 10 day(s).
| Time | Temp. | Humidity | Pressure | Rain* | Wind** | Luminosity | Snow |
|---|---|---|---|---|---|---|---|
| 1777766568 | 24.44° C | 40% | 1018.3 hPa | 0 mm | - | - | - |
| 1777766265 | 24.44° C | 39% | 1018.2 hPa | 0 mm | - | - | - |
| 1777765963 | 24.44° C | 39% | 1018.3 hPa | 0 mm | - | - | - |
| 1777765659 | 24.44° C | 39% | 1018.4 hPa | 0 mm | - | - | - |
| 1777765356 | 25° C | 39% | 1018.1 hPa | 0 mm | - | - | - |
| 1777765052 | 25.56° C | 39% | 1018.4 hPa | 0 mm | - | - | - |
| 1777764749 | 24.44° C | 39% | 1018.5 hPa | 0 mm | - | - | - |
| 1777764445 | 25.56° C | 38% | 1018.5 hPa | 0 mm | - | - | - |
| 1777764142 | 25° C | 38% | 1018.6 hPa | 0 mm | - | - | - |
| 1777763839 | 26.67° C | 38% | 1018.4 hPa | 0 mm | - | - | - |
| 1777763537 | 26.67° C | 36% | 1018.6 hPa | 0 mm | - | - | - |
| 1777763235 | 26.67° C | 37% | 1018.5 hPa | 0 mm | - | - | - |
| 1777762933 | 26.67° C | 37% | 1018.5 hPa | 0 mm | - | - | - |
| 1777762628 | 26.11° C | 38% | 1018.5 hPa | 0 mm | - | - | - |
| 1777762326 | 26.11° C | 37% | 1018.6 hPa | 0 mm | - | - | - |
| 1777762022 | 25.56° C | 38% | 1018.6 hPa | 0 mm | - | - | - |
| 1777761719 | 25.56° C | 39% | 1018.8 hPa | 0 mm | - | - | - |
| 1777761417 | 25.56° C | 39% | 1018.7 hPa | 0 mm | - | - | - |
| 1777761115 | 25.56° C | 39% | 1018.7 hPa | 0 mm | - | - | - |
| 1777760812 | 26.67° C | 37% | 1018.8 hPa | 0 mm | - | - | - |
| 1777760508 | 26.67° C | 37% | 1018.8 hPa | 0 mm | - | - | - |
| 1777760204 | 26.11° C | 38% | 1018.7 hPa | 0 mm | - | - | - |
| 1777759901 | 26.11° C | 38% | 1018.8 hPa | 0 mm | - | - | - |
| 1777759597 | 26.11° C | 37% | 1018.9 hPa | 0 mm | - | - | - |
| 1777759294 | 25° C | 38% | 1018.7 hPa | 0 mm | - | - | - |
* Rain latest hour (hover to see other rain measurements)
** Current wind speed in m/s (hover to see current wind gust speed)